| time (UTC) | temp F | wind direction | speed MPH | gust MPH | rain 1hr in | rain 24hr in | rain mn in | humidity % | barometer mb |
| 20260905022547 | 84 | 73 | 4.0 | 10.0 | 0.00 | 1.97 | 0.00 | 63 | 1007.7 |
| 20260905022030 | 83 | 103 | 5.0 | 10.0 | 0.00 | 1.97 | 0.00 | 63 | 1007.7 |
| 20260905021539 | 83 | 36 | 5.0 | 8.0 | 0.00 | 1.97 | 0.00 | 63 | 1007.6 |
| 20260905021023 | 83 | 61 | 5.0 | 8.0 | 0.00 | 1.97 | 0.00 | 63 | 1007.7 |
| 20260905020555 | 83 | 103 | 4.0 | 8.0 | 0.00 | 1.97 | 0.00 | 63 | 1007.8 |
| 20260905020037 | 83 | 174 | 2.0 | 7.0 | 0.00 | 2.60 | 0.00 | 64 | 1007.8 |
| 20260905015545 | 83 | 69 | 4.0 | 7.0 | 0.00 | 2.60 | 0.00 | 63 | 1007.9 |
| 20260905015026 | 83 | 112 | 2.0 | 5.0 | 0.00 | 2.60 | 0.00 | 63 | 1008.0 |
| 20260905014533 | 83 | 83 | 2.0 | 7.0 | 0.00 | 2.60 | 0.00 | 64 | 1008.0 |
| 20260905014038 | 83 | 278 | 3.0 | 7.0 | 0.00 | 2.60 | 0.00 | 63 | 1008.1 |
| 20260905013522 | 82 | 153 | 1.0 | 5.0 | 0.00 | 2.60 | 0.00 | 65 | 1008.1 |
| 20260905013029 | 82 | 171 | 1.0 | 6.0 | 0.00 | 2.60 | 0.00 | 65 | 1008.2 |
| 20260905012539 | 82 | 293 | 2.0 | 7.0 | 0.00 | 2.60 | 0.00 | 65 | 1008.2 |
| 20260905012021 | 82 | 213 | 3.0 | 5.0 | 0.00 | 2.60 | 0.00 | 65 | 1008.1 |
| 20260905011530 | 81 | 226 | 2.0 | 8.0 | 0.00 | 2.60 | 0.00 | 66 | 1008.2 |
| 20260905011040 | 81 | 172 | 3.0 | 8.0 | 0.00 | 2.60 | 0.00 | 66 | 1008.3 |
| 20260905010523 | 81 | 175 | 1.0 | 6.0 | 0.00 | 2.60 | 0.00 | 66 | 1008.4 |
| 20260905010027 | 80 | 180 | 1.0 | 7.0 | 0.00 | 3.15 | 0.00 | 67 | 1008.3 |
| 20260905005536 | 80 | 195 | 1.0 | 7.0 | 0.00 | 3.15 | 0.00 | 68 | 1008.4 |
| 20260905005018 | 80 | 218 | 2.0 | 5.0 | 0.00 | 3.15 | 0.00 | 68 | 1008.5 |
| 20260905004527 | 80 | 185 | 1.0 | 4.0 | 0.00 | 3.15 | 0.00 | 69 | 1008.4 |
| 20260905004037 | 79 | 176 | 1.0 | 4.0 | 0.00 | 3.15 | 0.00 | 70 | 1008.5 |
| 20260905003520 | 79 | 199 | 1.0 | 4.0 | 0.00 | 3.15 | 0.00 | 71 | 1008.5 |
| 20260905003026 | 79 | 176 | 0.0 | 4.0 | 0.00 | 3.15 | 0.00 | 72 | 1008.4 |
| 20260905002516 | 79 | 176 | 0.0 | 3.0 | 0.00 | 3.15 | 0.00 | 73 | 1008.4 |
| 20260905002042 | 78 | 186 | 1.0 | 4.0 | 0.00 | 3.15 | 0.00 | 75 | 1008.4 |
| 20260905001524 | 78 | 199 | 2.0 | 4.0 | 0.00 | 3.15 | 0.00 | 75 | 1008.4 |
| 20260905001032 | 77 | 183 | 0.0 | 2.0 | 0.00 | 3.15 | 0.00 | 77 | 1008.4 |
| 20260905000604 | 77 | 186 | 2.0 | 3.0 | 0.00 | 3.15 | 0.00 | 76 | 1008.4 |
| 20260905000046 | 77 | 165 | 0.0 | 3.0 | 0.00 | 3.94 | 0.00 | 78 | 1008.3 |
| 20260904235534 | 77 | 163 | 0.0 | 3.0 | 0.00 | 3.94 | 0.00 | 79 | 1008.3 |
| 20260904235043 | 76 | 163 | 1.0 | 6.0 | 0.00 | 3.94 | 0.00 | 78 | 1008.2 |
| 20260904234520 | 76 | 194 | 2.0 | 6.0 | 0.00 | 3.94 | 0.00 | 77 | 1008.1 |
| 20260904234035 | 76 | 184 | 2.0 | 6.0 | 0.00 | 3.94 | 0.00 | 79 | 1008.0 |
| 20260904233519 | 76 | 181 | 3.0 | 5.0 | 0.00 | 3.94 | 0.00 | 79 | 1008.2 |
| 20260904233025 | 75 | 203 | 1.0 | 4.0 | 0.00 | 3.94 | 0.00 | 80 | 1008.2 |
| 20260904232545 | 75 | 173 | 1.0 | 2.0 | 0.00 | 3.94 | 0.00 | 80 | 1008.2 |
| 20260904232023 | 75 | 169 | 0.0 | 4.0 | 0.00 | 3.94 | 0.00 | 81 | 1008.0 |
| 20260904231529 | 75 | 185 | 0.0 | 5.0 | 0.00 | 3.94 | 0.00 | 81 | 1008.1 |
| 20260904231039 | 75 | 222 | 2.0 | 5.0 | 0.00 | 3.94 | 0.00 | 81 | 1008.1 |
| 20260904230539 | 74 | 176 | 1.0 | 3.0 | 0.00 | 3.94 | 0.00 | 82 | 1008.1 |
| 20260904230025 | 74 | 203 | 1.0 | 3.0 | 0.00 | 4.13 | 0.00 | 82 | 1008.2 |
| 20260904225534 | 74 | 190 | 1.0 | 3.0 | 0.00 | 4.13 | 0.00 | 83 | 1008.2 |
| 20260904225138 | 74 | 181 | 0.0 | 2.0 | 0.00 | 4.13 | 0.00 | 84 | 1008.1 |
| 20260904224603 | 73 | 175 | 0.0 | 3.0 | 0.00 | 4.13 | 0.00 | 85 | 1008.1 |
| 20260904224022 | 73 | 194 | 2.0 | 4.0 | 0.00 | 4.13 | 0.00 | 85 | 1008.0 |
| 20260904223555 | 72 | 190 | 1.0 | 5.0 | 0.00 | 4.13 | 0.00 | 86 | 1007.9 |
| 20260904223038 | 72 | 168 | 1.0 | 5.0 | 0.00 | 4.13 | 0.00 | 86 | 1007.9 |
| 20260904222520 | 71 | 184 | 2.0 | 4.0 | 0.00 | 4.13 | 0.00 | 86 | 1007.9 |
| 20260904222028 | 71 | 175 | 1.0 | 2.0 | 0.00 | 4.13 | 0.00 | 87 | 1008.0 |
| 20260904221539 | 71 | 190 | 0.0 | 2.0 | 0.00 | 4.13 | 0.00 | 87 | 1008.1 |
| 20260904221020 | 71 | 190 | 0.0 | 3.0 | 0.00 | 4.13 | 0.00 | 87 | 1008.0 |
| 20260904220529 | 71 | 200 | 0.0 | 3.0 | 0.00 | 4.13 | 0.00 | 87 | 1008.0 |
| 20260904220028 | 70 | 179 | 0.0 | 2.0 | 0.00 | 4.25 | 0.00 | 87 | 1008.1 |
| 20260904215516 | 70 | 179 | 1.0 | 2.0 | 0.00 | 4.25 | 0.00 | 87 | 1008.0 |
| 20260904215022 | 70 | 179 | 0.0 | 1.0 | 0.00 | 4.25 | 0.00 | 87 | 1008.0 |
| 20260904214553 | 70 | 179 | 0.0 | 1.0 | 0.00 | 4.25 | 0.00 | 87 | 1007.9 |
| 20260904214041 | 70 | 179 | 0.0 | 1.0 | 0.00 | 4.25 | 0.00 | 87 | 1008.0 |
| 20260904213525 | 70 | 179 | 0.0 | 3.0 | 0.00 | 4.25 | 0.00 | 87 | 1008.0 |
| 20260904213032 | 70 | 179 | 0.0 | 4.0 | 0.00 | 4.25 | 0.00 | 87 | 1007.8 |
| 20260904212516 | 70 | 208 | 2.0 | 4.0 | 0.00 | 4.25 | 0.00 | 87 | 1007.6 |
| 20260904212016 | 70 | 184 | 2.0 | 5.0 | 0.00 | 4.25 | 0.00 | 87 | 1007.5 |
| 20260904211542 | 70 | 180 | 2.0 | 5.0 | 0.00 | 4.25 | 0.00 | 87 | 1007.4 |
| 20260904211022 | 70 | 176 | 1.0 | 4.0 | 0.00 | 4.25 | 0.00 | 87 | 1007.4 |
| 20260904210554 | 70 | 204 | 2.0 | 4.0 | 0.00 | 4.25 | 0.00 | 88 | 1007.3 |
| 20260904210040 | 70 | 179 | 0.0 | 2.0 | 0.00 | 4.69 | 0.00 | 88 | 1007.3 |
| 20260904205521 | 69 | 184 | 1.0 | 2.0 | 0.00 | 4.69 | 0.00 | 88 | 1007.3 |
| 20260904205030 | 69 | 172 | 0.0 | 1.0 | 0.00 | 4.69 | 0.00 | 87 | 1007.3 |
| 20260904204611 | 70 | 172 | 0.0 | 4.0 | 0.00 | 4.69 | 0.00 | 88 | 1007.3 |
| 20260904204053 | 70 | 172 | 2.0 | 4.0 | 0.00 | 4.69 | 0.00 | 88 | 1007.3 |
| 20260904203536 | 70 | 182 | 0.0 | 2.0 | 0.00 | 4.69 | 0.00 | 88 | 1007.3 |
| 20260904203042 | 70 | 179 | 1.0 | 3.0 | 0.00 | 4.69 | 0.00 | 88 | 1007.3 |
| 20260904202525 | 70 | 179 | 0.0 | 3.0 | 0.00 | 4.69 | 0.00 | 88 | 1007.2 |
| 20260904202035 | 70 | 167 | 0.0 | 4.0 | 0.00 | 4.69 | 0.00 | 88 | 1007.4 |
| 20260904201515 | 70 | 179 | 1.0 | 5.0 | 0.00 | 4.69 | 0.00 | 88 | 1007.3 |
| 20260904201037 | 70 | 153 | 2.0 | 5.0 | 0.00 | 4.69 | 0.00 | 88 | 1007.4 |
| 20260904200604 | 70 | 172 | 1.0 | 5.0 | 0.00 | 4.69 | 0.00 | 88 | 1007.4 |
| 20260904200023 | 70 | 176 | 1.0 | 2.0 | 0.00 | 5.20 | 0.00 | 88 | 1007.5 |
| 20260904195554 | 70 | 176 | 0.0 | 2.0 | 0.00 | 5.20 | 0.00 | 88 | 1007.5 |
| 20260904195037 | 70 | 176 | 1.0 | 3.0 | 0.00 | 5.20 | 0.00 | 88 | 1007.6 |
| 20260904194519 | 70 | 201 | 2.0 | 3.0 | 0.00 | 5.20 | 0.00 | 88 | 1007.7 |
| 20260904194029 | 70 | 201 | 2.0 | 3.0 | 0.00 | 5.20 | 0.00 | 88 | 1007.7 |
| 20260904193540 | 70 | 183 | 1.0 | 2.0 | 0.00 | 5.20 | 0.00 | 88 | 1007.6 |
| 20260904193022 | 70 | 181 | 1.0 | 2.0 | 0.00 | 5.20 | 0.00 | 89 | 1007.7 |
| 20260904192527 | 70 | 179 | 0.0 | 2.0 | 0.00 | 5.20 | 0.00 | 89 | 1007.7 |
| 20260904192036 | 71 | 179 | 1.0 | 4.0 | 0.00 | 5.20 | 0.00 | 89 | 1007.8 |
| 20260904191518 | 71 | 187 | 1.0 | 4.0 | 0.00 | 5.20 | 0.00 | 89 | 1007.7 |
| 20260904191028 | 70 | 191 | 0.0 | 4.0 | 0.00 | 5.20 | 0.00 | 89 | 1007.6 |
| 20260904190539 | 71 | 199 | 2.0 | 4.0 | 0.00 | 5.20 | 0.00 | 89 | 1007.7 |
| 20260904190040 | 71 | 174 | 1.0 | 3.0 | 0.00 | 5.94 | 0.00 | 89 | 1007.8 |
| 20260904185519 | 71 | 197 | 1.0 | 3.0 | 0.00 | 5.94 | 0.00 | 89 | 1007.8 |
| 20260904185045 | 71 | 188 | 1.0 | 3.0 | 0.00 | 5.94 | 0.00 | 89 | 1007.8 |
| 20260904184533 | 71 | 172 | 1.0 | 3.0 | 0.00 | 5.94 | 0.00 | 89 | 1007.9 |
| 20260904184017 | 71 | 199 | 1.0 | 3.0 | 0.00 | 5.94 | 0.00 | 89 | 1007.9 |
| 20260904183528 | 71 | 186 | 1.0 | 4.0 | 0.00 | 5.94 | 0.00 | 89 | 1007.9 |
| 20260904183055 | 71 | 189 | 2.0 | 4.0 | 0.00 | 5.94 | 0.00 | 90 | 1007.9 |
| 20260904182516 | 71 | 181 | 2.0 | 4.0 | 0.00 | 5.94 | 0.00 | 90 | 1007.9 |
| 20260904182026 | 71 | 174 | 2.0 | 6.0 | 0.00 | 5.94 | 0.00 | 90 | 1007.9 |
| 20260904181534 | 71 | 183 | 3.0 | 6.0 | 0.00 | 5.94 | 0.00 | 90 | 1007.8 |
| 20260904181040 | 71 | 192 | 2.0 | 5.0 | 0.00 | 5.94 | 0.00 | 90 | 1007.8 |
| 20260904180523 | 71 | 198 | 2.0 | 4.0 | 0.00 | 5.94 | 0.00 | 90 | 1007.7 |
| 20260904180050 | 71 | 190 | 2.0 | 4.0 | 0.00 | 6.22 | 0.00 | 90 | 1007.7 |
| 20260904175539 | 71 | 179 | 1.0 | 4.0 | 0.00 | 6.22 | 0.00 | 90 | 1007.7 |
| 20260904175022 | 71 | 162 | 2.0 | 4.0 | 0.00 | 6.22 | 0.00 | 90 | 1007.6 |
| 20260904174532 | 71 | 200 | 2.0 | 4.0 | 0.00 | 6.22 | 0.00 | 90 | 1007.6 |
| 20260904174102 | 71 | 175 | 1.0 | 3.0 | 0.00 | 6.22 | 0.00 | 90 | 1007.7 |
| 20260904173526 | 71 | 169 | 1.0 | 6.0 | 0.00 | 6.22 | 0.00 | 90 | 1007.7 |
| 20260904173030 | 71 | 181 | 1.0 | 4.0 | 0.00 | 6.22 | 0.00 | 90 | 1007.7 |
| 20260904172540 | 71 | 209 | 2.0 | 4.0 | 0.00 | 6.22 | 0.00 | 90 | 1007.6 |
| 20260904172044 | 71 | 181 | 0.0 | 5.0 | 0.00 | 6.22 | 0.00 | 90 | 1007.6 |
| 20260904171533 | 71 | 203 | 2.0 | 6.0 | 0.00 | 6.22 | 0.00 | 90 | 1007.6 |
| 20260904171037 | 71 | 188 | 3.0 | 6.0 | 0.00 | 6.22 | 0.00 | 90 | 1007.6 |
| 20260904170526 | 71 | 198 | 2.0 | 4.0 | 0.00 | 6.22 | 0.00 | 90 | 1007.6 |
| 20260904170033 | 71 | 205 | 2.0 | 4.0 | 0.00 | 6.26 | 0.00 | 90 | 1007.7 |
| 20260904165531 | 71 | 195 | 2.0 | 4.0 | 0.00 | 6.26 | 0.00 | 90 | 1007.8 |
| 20260904165040 | 71 | 186 | 0.0 | 1.0 | 0.00 | 6.26 | 0.00 | 90 | 1007.8 |
| 20260904164524 | 71 | 181 | 0.0 | 2.0 | 0.00 | 6.26 | 0.00 | 90 | 1007.8 |
| 20260904164054 | 71 | 181 | 1.0 | 2.0 | 0.00 | 6.26 | 0.00 | 90 | 1008.0 |
| 20260904163543 | 71 | 180 | 1.0 | 2.0 | 0.00 | 6.26 | 0.00 | 90 | 1008.0 |
| 20260904163023 | 71 | 180 | 0.0 | 3.0 | 0.00 | 6.26 | 0.00 | 90 | 1008.1 |
| 20260904162532 | 71 | 177 | 1.0 | 3.0 | 0.00 | 6.26 | 0.00 | 90 | 1008.1 |
| 20260904162041 | 71 | 186 | 1.0 | 3.0 | 0.00 | 6.26 | 0.00 | 90 | 1008.0 |
| 20260904161519 | 71 | 184 | 1.0 | 2.0 | 0.00 | 6.26 | 0.00 | 90 | 1008.1 |
| 20260904161050 | 71 | 176 | 0.0 | 3.0 | 0.00 | 6.26 | 0.00 | 90 | 1008.1 |
| 20260904160540 | 71 | 181 | 1.0 | 3.0 | 0.00 | 6.26 | 0.00 | 90 | 1008.2 |
| 20260904160022 | 71 | 191 | 0.0 | 1.0 | 0.00 | 6.26 | 0.00 | 90 | 1008.2 |
| 20260904155532 | 71 | 191 | 0.0 | 3.0 | 0.00 | 6.26 | 0.00 | 90 | 1008.1 |
| 20260904155016 | 71 | 192 | 2.0 | 5.0 | 0.00 | 6.26 | 0.00 | 90 | 1008.1 |
| 20260904154525 | 72 | 184 | 2.0 | 5.0 | 0.00 | 6.26 | 0.00 | 91 | 1008.0 |
| 20260904154036 | 72 | 195 | 2.0 | 3.0 | 0.00 | 6.26 | 0.00 | 91 | 1008.0 |
| 20260904153546 | 72 | 195 | 1.0 | 3.0 | 0.00 | 6.26 | 0.00 | 91 | 1008.0 |
| 20260904153032 | 72 | 188 | 1.0 | 3.0 | 0.00 | 6.26 | 0.00 | 91 | 1007.9 |
| 20260904152541 | 72 | 186 | 2.0 | 3.0 | 0.00 | 6.26 | 0.00 | 91 | 1008.0 |
| 20260904152023 | 72 | 165 | 1.0 | 2.0 | 0.00 | 6.26 | 0.00 | 91 | 1008.0 |
| 20260904151533 | 72 | 155 | 0.0 | 0.0 | 0.00 | 6.26 | 0.00 | 91 | 1007.9 |
| 20260904151036 | 72 | 155 | 0.0 | 0.0 | 0.00 | 6.26 | 0.00 | 91 | 1008.0 |
| 20260904150518 | 72 | 155 | 0.0 | 2.0 | 0.00 | 6.26 | 0.00 | 91 | 1008.0 |
| 20260904150047 | 72 | 155 | 0.0 | 2.0 | 0.00 | 6.26 | 1.25 | 91 | 1008.0 |
| 20260904145525 | 72 | 151 | 1.0 | 1.0 | 0.00 | 6.26 | 1.25 | 91 | 1008.0 |
| 20260904145054 | 72 | 143 | 0.0 | 1.0 | 0.00 | 6.26 | 1.25 | 91 | 1008.0 |
| 20260904144518 | 72 | 143 | 0.0 | 1.0 | 0.00 | 6.26 | 1.25 | 91 | 1008.1 |
| 20260904144029 | 72 | 144 | 0.0 | 1.0 | 0.00 | 6.26 | 1.25 | 91 | 1008.0 |
| 20260904143539 | 72 | 144 | 0.0 | 1.0 | 0.00 | 6.26 | 1.25 | 91 | 1008.1 |
| 20260904143038 | 72 | 144 | 0.0 | 1.0 | 0.00 | 6.26 | 1.25 | 91 | 1008.0 |
| 20260904142551 | 72 | 144 | 0.0 | 1.0 | 0.00 | 6.26 | 1.25 | 91 | 1007.9 |
| 20260904142038 | 72 | 143 | 0.0 | 1.0 | 0.00 | 6.26 | 1.25 | 91 | 1007.9 |
| 20260904141543 | 72 | 144 | 0.0 | 1.0 | 0.00 | 6.26 | 1.25 | 91 | 1007.8 |
| 20260904141033 | 72 | 144 | 0.0 | 1.0 | 0.00 | 6.26 | 1.25 | 90 | 1007.9 |
| 20260904140603 | 72 | 144 | 0.0 | 1.0 | 0.00 | 6.26 | 1.25 | 91 | 1008.0 |
| 20260904140023 | 72 | 144 | 0.0 | 0.0 | 0.00 | 6.26 | 1.25 | 90 | 1007.8 |
| 20260904135534 | 72 | 144 | 0.0 | 0.0 | 0.00 | 6.26 | 1.25 | 90 | 1007.8 |
| 20260904135015 | 73 | 144 | 0.0 | 0.0 | 0.00 | 6.26 | 1.25 | 90 | 1007.8 |
| 20260904134519 | 73 | 144 | 0.0 | 1.0 | 0.00 | 6.26 | 1.25 | 90 | 1007.7 |
| 20260904134023 | 73 | 144 | 0.0 | 1.0 | 0.00 | 6.26 | 1.25 | 90 | 1007.7 |
| 20260904133536 | 73 | 144 | 0.0 | 1.0 | 0.00 | 6.26 | 1.25 | 90 | 1007.7 |
| 20260904133018 | 73 | 144 | 0.0 | 1.0 | 0.00 | 6.26 | 1.25 | 90 | 1007.8 |
| 20260904132528 | 73 | 144 | 0.0 | 1.0 | 0.00 | 6.26 | 1.25 | 90 | 1007.8 |
| 20260904132037 | 73 | 144 | 0.0 | 2.0 | 0.00 | 6.26 | 1.25 | 90 | 1007.7 |
| 20260904131541 | 73 | 144 | 0.0 | 1.0 | 0.00 | 6.26 | 1.25 | 90 | 1007.7 |
| 20260904131100 | 73 | 131 | 0.0 | 1.0 | 0.00 | 6.26 | 1.25 | 90 | 1007.7 |
| 20260904130613 | 73 | 131 | 0.0 | 1.0 | 0.00 | 6.26 | 1.25 | 90 | 1007.7 |
| 20260904130036 | 73 | 131 | 0.0 | 0.0 | 0.00 | 6.26 | 1.25 | 90 | 1007.7 |
| 20260904125523 | 73 | 131 | 0.0 | 1.0 | 0.00 | 6.26 | 1.25 | 90 | 1007.8 |
| 20260904125051 | 73 | 131 | 0.0 | 1.0 | 0.00 | 6.26 | 1.25 | 90 | 1007.7 |
| 20260904124540 | 73 | 131 | 0.0 | 1.0 | 0.00 | 6.26 | 1.25 | 90 | 1007.8 |
| 20260904124023 | 73 | 131 | 0.0 | 1.0 | 0.00 | 6.26 | 1.25 | 90 | 1007.9 |
| 20260904123517 | 73 | 131 | 0.0 | 1.0 | 0.00 | 6.26 | 1.25 | 90 | 1007.9 |
| 20260904122527 | 73 | 131 | 0.0 | 1.0 | 0.00 | 6.26 | 1.25 | 90 | 1008.2 |
| 20260904122039 | 73 | 131 | 0.0 | 1.0 | 0.00 | 6.26 | 1.25 | 89 | 1008.0 |
| 20260904121523 | 73 | 131 | 0.0 | 1.0 | 0.00 | 6.26 | 1.25 | 89 | 1007.8 |
| 20260904121034 | 73 | 131 | 0.0 | 1.0 | 0.00 | 6.26 | 1.25 | 89 | 1007.7 |
| 20260904120518 | 74 | 131 | 0.0 | 1.0 | 0.00 | 6.26 | 1.25 | 89 | 1007.7 |
| 20260904115534 | 74 | 131 | 0.0 | 1.0 | 0.00 | 6.26 | 1.25 | 89 | 1007.7 |
| 20260904115037 | 74 | 131 | 0.0 | 1.0 | 0.00 | 6.26 | 1.25 | 89 | 1007.7 |
| 20260904114529 | 74 | 131 | 0.0 | 1.0 | 0.00 | 6.26 | 1.25 | 89 | 1007.7 |
| 20260904114039 | 74 | 131 | 0.0 | 1.0 | 0.00 | 6.26 | 1.25 | 89 | 1007.8 |
| 20260904113700 | 74 | 131 | 0.0 | 1.0 | 0.00 | 6.26 | 1.25 | 89 | 1007.8 |
| 20260904113033 | 74 | 131 | 0.0 | 1.0 | 0.00 | 6.26 | 1.25 | 88 | 1007.8 |
| 20260904112516 | 74 | 131 | 0.0 | 1.0 | 0.00 | 6.26 | 1.25 | 88 | 1007.7 |
| 20260904112017 | 74 | 131 | 0.0 | 1.0 | 0.00 | 6.26 | 1.25 | 88 | 1007.6 |
| 20260904111523 | 74 | 131 | 0.0 | 3.0 | 0.00 | 6.26 | 1.25 | 88 | 1007.5 |
| 20260904111032 | 74 | 127 | 0.0 | 3.0 | 0.00 | 6.26 | 1.25 | 88 | 1007.4 |
| 20260904110542 | 74 | 103 | 1.0 | 3.0 | 0.00 | 6.26 | 1.25 | 89 | 1007.5 |
| 20260904110023 | 74 | 103 | 1.0 | 3.0 | 0.00 | 6.34 | 1.25 | 89 | 1007.3 |
| 20260904105534 | 74 | 92 | 0.0 | 4.0 | 0.00 | 6.34 | 1.25 | 89 | 1007.4 |
| 20260904105016 | 74 | 72 | 2.0 | 4.0 | 0.00 | 6.34 | 1.25 | 89 | 1007.1 |
| 20260904104525 | 74 | 108 | 1.0 | 2.0 | 0.00 | 6.34 | 1.25 | 89 | 1007.1 |
| 20260904104035 | 74 | 139 | 0.0 | 1.0 | 0.00 | 6.34 | 1.25 | 89 | 1007.5 |
| 20260904103542 | 74 | 139 | 0.0 | 1.0 | 0.00 | 6.34 | 1.25 | 89 | 1007.1 |
| 20260904103023 | 74 | 139 | 0.0 | 1.0 | 0.00 | 6.34 | 1.25 | 89 | 1007.3 |
| 20260904102535 | 74 | 139 | 1.0 | 1.0 | 0.00 | 6.34 | 1.25 | 89 | 1007.1 |
| 20260904102018 | 75 | 139 | 0.0 | 1.0 | 0.00 | 6.34 | 1.25 | 89 | 1007.3 |
| 20260904101549 | 74 | 139 | 1.0 | 1.0 | 0.00 | 6.34 | 1.25 | 89 | 1007.1 |
| 20260904101037 | 75 | 133 | 0.0 | 1.0 | 0.00 | 6.34 | 1.25 | 89 | 1006.7 |
| 20260904100522 | 75 | 127 | 0.0 | 1.0 | 0.00 | 6.34 | 1.25 | 89 | 1006.7 |
| 20260904100030 | 75 | 127 | 0.0 | 1.0 | 0.00 | 6.73 | 1.25 | 89 | 1006.9 |
| 20260904095535 | 75 | 157 | 0.0 | 2.0 | 0.00 | 6.73 | 1.25 | 89 | 1007.1 |
| 20260904095018 | 74 | 157 | 1.0 | 2.0 | 0.00 | 6.73 | 1.25 | 89 | 1007.3 |
| 20260904094527 | 74 | 124 | 0.0 | 3.0 | 0.00 | 6.73 | 1.25 | 89 | 1006.9 |
| 20260904094037 | 74 | 99 | 2.0 | 3.0 | 0.00 | 6.73 | 1.25 | 88 | 1006.6 |
| 20260904093521 | 74 | 136 | 1.0 | 2.0 | 0.00 | 6.73 | 1.25 | 89 | 1006.9 |
| 20260904093029 | 75 | 136 | 1.0 | 2.0 | 0.00 | 6.73 | 1.25 | 89 | 1006.7 |
| 20260904092538 | 75 | 117 | 0.0 | 1.0 | 0.04 | 6.73 | 1.25 | 89 | 1006.5 |
| 20260904092022 | 75 | 113 | 0.0 | 1.0 | 0.04 | 6.73 | 1.25 | 89 | 1006.7 |
| 20260904091528 | 74 | 96 | 0.0 | 5.0 | 0.04 | 6.73 | 1.25 | 89 | 1007.0 |
| 20260904091036 | 74 | 96 | 2.0 | 5.0 | 0.04 | 6.73 | 1.25 | 89 | 1007.1 |
| 20260904090520 | 74 | 43 | 2.0 | 4.0 | 0.04 | 6.73 | 1.25 | 89 | 1007.1 |
| 20260904090029 | 74 | 162 | 0.0 | 5.0 | 0.04 | 7.20 | 1.25 | 89 | 1007.1 |
| 20260904085601 | 74 | 106 | 1.0 | 5.0 | 0.04 | 7.20 | 1.25 | 89 | 1006.7 |
| 20260904085044 | 74 | 72 | 3.0 | 6.0 | 0.08 | 7.20 | 1.25 | 89 | 1006.5 |
| 20260904084552 | 74 | 68 | 4.0 | 6.0 | 0.08 | 7.20 | 1.25 | 89 | 1006.6 |
| 20260904084036 | 74 | 98 | 1.0 | 6.0 | 0.08 | 7.20 | 1.25 | 89 | 1007.1 |
| 20260904083541 | 75 | 86 | 4.0 | 6.0 | 0.08 | 7.20 | 1.25 | 88 | 1007.4 |
| 20260904083027 | 75 | 49 | 3.0 | 4.0 | 0.08 | 7.20 | 1.25 | 89 | 1007.3 |
| 20260904082558 | 75 | 68 | 1.0 | 4.0 | 0.08 | 7.17 | 1.24 | 89 | 1007.4 |
| 20260904082019 | 75 | 74 | 2.0 | 4.0 | 0.08 | 7.17 | 1.24 | 89 | 1007.3 |
| 20260904081550 | 75 | 172 | 1.0 | 5.0 | 0.08 | 7.17 | 1.24 | 88 | 1007.1 |
| 20260904081038 | 75 | 179 | 2.0 | 6.0 | 0.08 | 7.17 | 1.24 | 88 | 1006.8 |
| 20260904080523 | 75 | 172 | 1.0 | 6.0 | 0.08 | 7.17 | 1.24 | 88 | 1007.2 |
| 20260904080026 | 75 | 184 | 1.0 | 8.0 | 0.08 | 7.32 | 1.24 | 88 | 1006.7 |
| 20260904075535 | 75 | 191 | 2.0 | 8.0 | 0.12 | 7.32 | 1.24 | 88 | 1007.0 |
| 20260904075039 | 75 | 186 | 3.0 | 8.0 | 0.08 | 7.28 | 1.24 | 88 | 1007.4 |
| 20260904074520 | 75 | 212 | 3.0 | 6.0 | 0.08 | 7.28 | 1.24 | 88 | 1007.3 |
| 20260904074030 | 75 | 159 | 3.0 | 5.0 | 0.08 | 7.28 | 1.24 | 88 | 1007.5 |
| 20260904073602 | 75 | 184 | 2.0 | 7.0 | 0.08 | 7.28 | 1.24 | 88 | 1007.0 |
| 20260904073020 | 75 | 212 | 2.0 | 7.0 | 0.12 | 7.28 | 1.24 | 88 | 1006.7 |
| 20260904072552 | 75 | 184 | 2.0 | 12.0 | 0.08 | 7.24 | 1.23 | 89 | 1005.8 |
| 20260904072057 | 75 | 85 | 6.0 | 12.0 | 0.08 | 7.24 | 1.23 | 89 | 1005.4 |
| 20260904071519 | 75 | 85 | 2.0 | 6.0 | 0.08 | 7.24 | 1.23 | 89 | 1005.8 |
| 20260904071027 | 75 | 107 | 2.0 | 6.0 | 0.12 | 7.24 | 1.23 | 89 | 1006.0 |
| 20260904070538 | 75 | 214 | 0.0 | 4.0 | 0.12 | 7.24 | 1.23 | 89 | 1006.4 |
| 20260904070040 | 75 | 180 | 2.0 | 4.0 | 0.12 | 7.28 | 1.23 | 89 | 1007.1 |
| 20260904065529 | 75 | 175 | 1.0 | 4.0 | 0.12 | 7.24 | 1.22 | 89 | 1007.1 |
| 20260904065038 | 75 | 182 | 1.0 | 4.0 | 0.12 | 7.24 | 1.22 | 89 | 1007.2 |
| 20260904064520 | 75 | 176 | 1.0 | 3.0 | 0.16 | 7.24 | 1.22 | 89 | 1007.1 |
| 20260904064026 | 75 | 180 | 2.0 | 3.0 | 0.20 | 7.24 | 1.22 | 89 | 1007.0 |
| 20260904063536 | 75 | 158 | 1.0 | 3.0 | 0.28 | 7.24 | 1.22 | 89 | 1007.0 |
| 20260904063016 | 75 | 134 | 0.0 | 5.0 | 0.28 | 7.20 | 1.21 | 89 | 1006.9 |
| 20260904062527 | 75 | 112 | 2.0 | 5.0 | 0.31 | 7.20 | 1.21 | 89 | 1006.5 |
| 20260904062035 | 75 | 192 | 1.0 | 4.0 | 0.31 | 7.20 | 1.21 | 89 | 1007.1 |
| 20260904061517 | 75 | 146 | 1.0 | 4.0 | 0.28 | 7.17 | 1.20 | 89 | 1007.3 |
| 20260904061038 | 75 | 176 | 1.0 | 3.0 | 0.31 | 7.17 | 1.20 | 89 | 1007.1 |
| 20260904060524 | 75 | 196 | 1.0 | 3.0 | 0.31 | 7.17 | 1.20 | 89 | 1007.2 |
| 20260904060033 | 75 | 167 | 0.0 | 2.0 | 0.35 | 7.17 | 1.20 | 89 | 1007.0 |
| 20260904055542 | 75 | 181 | 0.0 | 3.0 | 0.31 | 7.13 | 1.20 | 89 | 1007.2 |
| 20260904055023 | 75 | 185 | 0.0 | 4.0 | 0.35 | 7.13 | 1.20 | 89 | 1007.1 |
| 20260904054530 | 75 | 163 | 1.0 | 4.0 | 0.35 | 7.09 | 1.19 | 89 | 1007.4 |
| 20260904054040 | 75 | 179 | 0.0 | 2.0 | 0.35 | 7.05 | 1.18 | 89 | 1007.5 |
| 20260904053524 | 75 | 179 | 1.0 | 2.0 | 0.28 | 6.97 | 1.17 | 89 | 1007.5 |
| 20260904053033 | 75 | 182 | 0.0 | 2.0 | 0.28 | 6.93 | 1.16 | 89 | 1007.4 |
| 20260904052538 | 75 | 190 | 1.0 | 2.0 | 0.24 | 6.89 | 1.15 | 89 | 1007.3 |
| 20260904052021 | 75 | 186 | 0.0 | 3.0 | 0.28 | 6.89 | 1.15 | 89 | 1007.5 |
| 20260904051531 | 75 | 186 | 0.0 | 3.0 | 0.31 | 6.89 | 1.15 | 89 | 1007.5 |
| 20260904051041 | 75 | 179 | 1.0 | 2.0 | 0.28 | 6.85 | 1.14 | 89 | 1007.5 |
| 20260904050525 | 75 | 178 | 1.0 | 1.0 | 0.31 | 6.85 | 1.14 | 89 | 1007.6 |
| 20260904050034 | 75 | 178 | 0.0 | 1.0 | 0.31 | 6.81 | 1.13 | 89 | 1007.5 |
| 20260904045516 | 75 | 178 | 0.0 | 2.0 | 0.28 | 6.77 | 1.13 | 89 | 1007.7 |
| 20260904045025 | 75 | 179 | 0.0 | 2.0 | 0.31 | 6.77 | 1.13 | 89 | 1007.5 |
| 20260904044533 | 75 | 174 | 0.0 | 1.0 | 0.28 | 6.73 | 1.12 | 89 | 1007.5 |
| 20260904044043 | 75 | 167 | 0.0 | 4.0 | 0.28 | 6.69 | 1.11 | 89 | 1007.4 |
| 20260904043525 | 75 | 249 | 2.0 | 5.0 | 0.31 | 6.69 | 1.11 | 89 | 1007.1 |
| 20260904042545 | 75 | 77 | 3.0 | 5.0 | 0.35 | 6.65 | 1.10 | 89 | 1007.2 |
| 20260904042034 | 75 | 114 | 1.0 | 3.0 | 0.35 | 6.61 | 1.09 | 89 | 1007.5 |
| 20260904041517 | 75 | 117 | 1.0 | 4.0 | 0.35 | 6.57 | 1.09 | 89 | 1007.6 |
| 20260904041048 | 75 | 76 | 2.0 | 3.0 | 0.39 | 6.57 | 1.09 | 89 | 1007.4 |
| 20260904040519 | 75 | 95 | 1.0 | 4.0 | 0.39 | 6.54 | 1.08 | 90 | 1007.5 |
| 20260904040045 | 75 | 52 | 2.0 | 4.0 | 0.43 | 6.50 | 1.07 | 90 | 1007.3 |
| 20260904035532 | 75 | 100 | 1.0 | 3.0 | 0.47 | 6.50 | 1.07 | 90 | 1007.5 |
| 20260904035103 | 74 | 82 | 1.0 | 3.0 | 0.51 | 6.46 | 1.06 | 90 | 1007.4 |
| 20260904034523 | 74 | 122 | 1.0 | 1.0 | 0.59 | 6.46 | 1.06 | 90 | 1007.5 |
| 20260904034033 | 74 | 149 | 0.0 | 1.0 | 0.63 | 6.42 | 1.06 | 90 | 1007.6 |
| 20260904033544 | 74 | 156 | 0.0 | 1.0 | 0.67 | 6.38 | 1.05 | 90 | 1007.7 |
| 20260904033024 | 74 | 167 | 0.0 | 0.0 | 0.71 | 6.34 | 1.04 | 90 | 1007.8 |
| 20260904032530 | 74 | 167 | 0.0 | 2.0 | 0.71 | 6.30 | 1.03 | 90 | 1007.8 |
| 20260904032042 | 74 | 167 | 0.0 | 2.0 | 0.71 | 6.26 | 1.02 | 90 | 1007.8 |
| 20260904031523 | 74 | 167 | 0.0 | 2.0 | 0.71 | 6.22 | 1.02 | 90 | 1007.7 |
| 20260904030520 | 74 | 171 | 0.0 | 2.0 | 0.67 | 6.14 | 1.00 | 90 | 1007.5 |
| 20260904030050 | 74 | 171 | 0.0 | 2.0 | 0.67 | 6.06 | 0.98 | 90 | 1007.5 |
| 20260904025539 | 74 | 172 | 1.0 | 2.0 | 0.67 | 6.02 | 0.98 | 90 | 1007.7 |
| 20260904025021 | 74 | 167 | 1.0 | 2.0 | 0.63 | 5.94 | 0.96 | 90 | 1007.8 |
| 20260904024530 | 74 | 167 | 0.0 | 2.0 | 0.59 | 5.87 | 0.94 | 90 | 1007.8 |
| 20260904024035 | 74 | 167 | 0.0 | 1.0 | 0.55 | 5.79 | 0.93 | 90 | 1007.8 |
| 20260904023520 | 74 | 167 | 0.0 | 4.0 | 0.51 | 5.71 | 0.91 | 90 | 1007.9 |
| 20260904023019 | 74 | 186 | 2.0 | 4.0 | 0.51 | 5.63 | 0.90 | 90 | 1007.9 |